Location: LDNL
(36.4545°S, 141.6685°E)
Time: 05:04:05
(UTC+11:00)

Vanguard 2 - Pass Details

Date: 13 August 2022
Orbit: 552 x 2934 km, 32.9° (Epoch: 06 October)

Event Time Altitude Azimuth Distance (km) Brightness Sun altitude
Rises 21:43:42 0° 262° (W) 5,871 12.8 -45.5°
Reaches altitude 10° 21:48:15 10° 265° (W) 4,493 11.9 -46.3°
Enters shadow 21:55:42 37° 287° (WNW) 2,283 10.0 -47.8°
Maximum altitude 21:59:08 51° 336° (NNW) 1,667 - -48.4°
Drops below altitude 10° 22:05:39 10° 50° (NE) 2,744 - -49.6°
Sets 22:07:49 0° 56° (NE) 3,468 - -50.0°
